Location: Aldenham
(51.6667°N, 0.3500°W)
Time: 16:34:57
(UTC+00:00)

CORIOLIS - Pass Details

Date: 18 November 2025
Orbit: 815 x 836 km, 98.7° (Epoch: 09 December)

Event Time Altitude Azimuth Distance (km) Brightness Sun altitude
Rises 17:13:24 0° 165° (SSE) 3,347 7.4 -10.1°
Reaches altitude 10° 17:15:45 10° 166° (SSE) 2,416 6.6 -10.5°
Maximum altitude 17:21:07 84° 255° (WSW) 832 4.2 -11.3°
Drops below altitude 10° 17:26:29 10° 343° (NNW) 2,422 6.6 -12.1°
Sets 17:28:50 0° 345° (NNW) 3,358 7.3 -12.4°
